SHIYAN 27B

导读

SHIYAN 27B(实践二十七号B)是中国于2025年4月18日发射的科学试验卫星,延续了中国“实践”系列卫星开展空间技术验证与空间环境探测的定位。该卫星作为中国航天新技术试验平台的重要组成,将对新型航天技术进行在轨验证,同时开展空间环境相关探测研究,为中国后续航天器的安全运行和空间技术创新发展积累宝贵数据,推动我国空间科技领域持续进步。

基本信息
目录编号:
63600
目录名称:
SHIYAN 27B
国际标识:
2025-078B
轨道中心:
EARTH
卫星名称:
SHIYAN 27B
卫星全名:
SHIYAN 27B
卫星状态:
在轨 (已飞行513 天)
发射日期:
2025-04-18 UTC
国别 :
中国 (CN)
星等 :
--
该卫星已列入 空间交会检测服务 Space Conjunction Data Service (SCDS) ,当前飞行风险评估等级: 无高风险
轨道信息
数据来源 国际轨道数据 AOE轨道数据
星历时间 2026-09-13T08:07:22+0800
5小时前
查看轨道信息
2026-09-10T02:00:00+0800
3天前
查看轨道信息
半长轴 7423.846km 7423.835km
偏心率 0.0001154 0.0001177
轨道倾角 99.695° 99.697°
近地点辐角 85.102° 69.928°
升交点赤经 261.913° 258.705°
平近点角 275.025° 233.597°
近地点 1044.852km 1044.824km
远地点 1046.566km 1046.572km
周期 106.097分钟 106.097分钟
每日圈数 13.572486 13.572514
详细信息
使用方式:
暂无
2D轨道图
3D轨道图
轨道高度分析图
轨道倾角分析图
轨道综合分析图
查看轨道综合分析图
交会数据列表
事件ID 空间交会对象 最接近时刻(TCA) 交会距离 交会风险概率(CRP) 交会风险指数(CRI) 操作
CDM_260913-083200-090706-360027
2026-09-13T
08:32:57+0000
1.388 km
极远距离
8.593132E-6 低风险 0.54
与全量物体交会距离演化趋势
与全量物体交会风险概率演化趋势